• In Austria
  • List of Countries
  • For 7 days
  • Water Temperature
  • Satellite Maps
  • Weather Map
  • News
  • Weather Widgets
  • user-avatar
    Login

    Hourly Weather Marsa Alam

    Today, 18 December, Monday

    Time Temperature Precipitation Wind Pressure Humidity
    00:00 +17°C° 0 mm 2 mps 718 mmHg 56%
    01:00 +17°C° 0 mm 2 mps 718 mmHg 58%
    02:00 +16°C° 0 mm 2 mps 718 mmHg 61%
    03:00 +16°C° 0 mm 2 mps 718 mmHg 64%
    04:00 +16°C° 0 mm 2 mps 718 mmHg 68%
    05:00 +15°C° 0 mm 2 mps 718 mmHg 71%
    06:00 +17°C° 0 mm 2 mps 718 mmHg 66%
    07:00 +18°C° 0 mm 2 mps 719 mmHg 61%
    08:00 +19°C° 0 mm 3 mps 719 mmHg 56%
    09:00 +21°C° 0 mm 3 mps 719 mmHg 48%
    10:00 +23°C° 0 mm 4 mps 719 mmHg 40%
    11:00 +26°C° 0 mm 4 mps 719 mmHg 32%
    12:00 +26°C° 0 mm 4 mps 719 mmHg 32%
    13:00 +26°C° 0 mm 4 mps 718 mmHg 32%
    14:00 +27°C° 0 mm 5 mps 718 mmHg 32%
    15:00 +25°C° 0 mm 4 mps 718 mmHg 37%
    16:00 +23°C° 0 mm 4 mps 718 mmHg 41%
    17:00 +22°C° 0 mm 3 mps 718 mmHg 46%
    18:00 +21°C° 0 mm 3 mps 718 mmHg 50%
    19:00 +20°C° 0 mm 2 mps 718 mmHg 54%
    20:00 +20°C° 0 mm 2 mps 718 mmHg 58%
    21:00 +19°C° 0 mm 2 mps 718 mmHg 56%
    22:00 +19°C° 0 mm 2 mps 718 mmHg 55%
    23:00 +19°C° 0 mm 2 mps 718 mmHg 53%

    Tomorrow, 19 December, Tuesday

    Time Temperature Precipitation Wind Pressure Humidity
    00:00 +18°C° 0 mm 2 mps 718 mmHg 51%
    01:00 +18°C° 0 mm 2 mps 718 mmHg 48%
    02:00 +18°C° 0 mm 2 mps 717 mmHg 46%
    03:00 +18°C° 0 mm 2 mps 717 mmHg 45%
    04:00 +17°C° 0 mm 2 mps 717 mmHg 45%
    05:00 +17°C° 0 mm 2 mps 717 mmHg 44%
    06:00 +18°C° 0 mm 2 mps 718 mmHg 42%
    07:00 +19°C° 0 mm 2 mps 718 mmHg 39%
    08:00 +21°C° 0 mm 2 mps 718 mmHg 37%
    09:00 +24°C° 0 mm 3 mps 719 mmHg 32%
    10:00 +26°C° 0 mm 3 mps 719 mmHg 27%
    11:00 +28°C° 0 mm 4 mps 719 mmHg 22%
    12:00 +28°C° 0 mm 4 mps 719 mmHg 21%
    13:00 +29°C° 0 mm 4 mps 718 mmHg 20%
    14:00 +29°C° 0 mm 5 mps 717 mmHg 19%
    15:00 +28°C° 0 mm 4 mps 717 mmHg 24%
    16:00 +26°C° 0 mm 3 mps 717 mmHg 29%
    17:00 +25°C° 0 mm 3 mps 717 mmHg 34%
    18:00 +22°C° 0 mm 3 mps 717 mmHg 41%
    19:00 +21°C° 0 mm 2 mps 717 mmHg 48%
    20:00 +20°C° 0 mm 2 mps 718 mmHg 54%
    21:00 +19°C° 0 mm 2 mps 718 mmHg 55%
    22:00 +19°C° 0 mm 2 mps 717 mmHg 56%
    23:00 +18°C° 0 mm 2 mps 717 mmHg 57%

    Day after tomorrow, 20 December, Wednesday

    Time Temperature Precipitation Wind Pressure Humidity
    00:00 +19°C° 0 mm 1 mps 717 mmHg 53%
    01:00 +19°C° 0 mm 1 mps 717 mmHg 50%
    02:00 +19°C° 0 mm 1 mps 717 mmHg 46%
    03:00 +19°C° 0 mm 1 mps 717 mmHg 46%
    04:00 +18°C° 0 mm 2 mps 717 mmHg 47%
    05:00 +17°C° 0 mm 2 mps 717 mmHg 47%
    06:00 +19°C° 0 mm 2 mps 717 mmHg 46%
    07:00 +20°C° 0 mm 2 mps 717 mmHg 44%
    08:00 +21°C° 0 mm 2 mps 718 mmHg 43%
    09:00 +24°C° 0 mm 3 mps 718 mmHg 39%
    10:00 +26°C° 0 mm 3 mps 718 mmHg 36%
    11:00 +28°C° 0 mm 4 mps 718 mmHg 32%
    12:00 +28°C° 0 mm 4 mps 718 mmHg 32%
    13:00 +29°C° 0 mm 4 mps 718 mmHg 31%
    14:00 +29°C° 0 mm 5 mps 717 mmHg 31%
    15:00 +28°C° 0 mm 5 mps 717 mmHg 36%
    16:00 +26°C° 0 mm 5 mps 717 mmHg 40%
    17:00 +25°C° 0 mm 5 mps 717 mmHg 45%
    18:00 +23°C° 0 mm 4 mps 717 mmHg 49%
    19:00 +22°C° 0 mm 4 mps 718 mmHg 54%
    20:00 +21°C° 0 mm 3 mps 718 mmHg 58%
    21:00 +20°C° 0 mm 3 mps 718 mmHg 58%
    22:00 +20°C° 0 mm 2 mps 718 mmHg 58%
    23:00 +19°C° 0 mm 2 mps 718 mmHg 58%

    21 December, Thursday

    Time Temperature Precipitation Wind Pressure Humidity
    00:00 +19°C° 0 mm 2 mps 718 mmHg 59%
    01:00 +19°C° 0 mm 2 mps 718 mmHg 60%
    02:00 +19°C° 0 mm 2 mps 717 mmHg 60%
    03:00 +18°C° 0 mm 2 mps 717 mmHg 65%
    04:00 +18°C° 0 mm 2 mps 717 mmHg 70%
    05:00 +18°C° 0 mm 2 mps 717 mmHg 75%
    06:00 +19°C° 0 mm 2 mps 718 mmHg 74%
    07:00 +20°C° 0 mm 3 mps 718 mmHg 74%
    08:00 +21°C° 0 mm 3 mps 719 mmHg 74%
    09:00 +24°C° 0 mm 3 mps 719 mmHg 65%
    10:00 +26°C° 0 mm 4 mps 719 mmHg 56%
    11:00 +27°C° 0 mm 4 mps 719 mmHg 47%
    12:00 +28°C° 0 mm 5 mps 718 mmHg 45%
    13:00 +28°C° 0 mm 5 mps 718 mmHg 43%
    14:00 +29°C° 0 mm 5 mps 717 mmHg 41%
    15:00 +28°C° 0 mm 5 mps 717 mmHg 45%
    16:00 +26°C° 0 mm 4 mps 717 mmHg 50%
    17:00 +25°C° 0 mm 4 mps 717 mmHg 55%
    18:00 +24°C° 0 mm 3 mps 717 mmHg 60%
    19:00 +22°C° 0 mm 3 mps 718 mmHg 65%
    20:00 +21°C° 0 mm 2 mps 718 mmHg 70%
    21:00 +20°C° 0 mm 2 mps 718 mmHg 69%
    22:00 +20°C° 0 mm 2 mps 718 mmHg 69%
    23:00 +19°C° 0 mm 2 mps 718 mmHg 69%

    22 December, Friday

    Time Temperature Precipitation Wind Pressure Humidity
    00:00 +19°C° 0 mm 2 mps 717 mmHg 67%
    01:00 +20°C° 0 mm 1 mps 717 mmHg 65%
    02:00 +20°C° 0 mm 1 mps 717 mmHg 62%
    03:00 +19°C° 0 mm 1 mps 717 mmHg 65%
    04:00 +19°C° 0 mm 1 mps 717 mmHg 67%
    05:00 +18°C° 0 mm 2 mps 717 mmHg 70%
    06:00 +19°C° 0 mm 2 mps 717 mmHg 68%
    07:00 +20°C° 0 mm 2 mps 718 mmHg 66%
    08:00 +21°C° 0 mm 2 mps 718 mmHg 65%
    09:00 +23°C° 0 mm 2 mps 718 mmHg 57%
    10:00 +25°C° 0 mm 3 mps 718 mmHg 49%
    11:00 +27°C° 0 mm 3 mps 718 mmHg 40%
    12:00 +28°C° 0 mm 3 mps 717 mmHg 39%
    13:00 +28°C° 0 mm 3 mps 717 mmHg 38%
    14:00 +29°C° 0 mm 4 mps 716 mmHg 37%
    15:00 +27°C° 0 mm 3 mps 716 mmHg 44%
    16:00 +26°C° 0 mm 3 mps 716 mmHg 52%
    17:00 +25°C° 0 mm 3 mps 716 mmHg 59%
    18:00 +24°C° 0 mm 3 mps 716 mmHg 66%
    19:00 +23°C° 0 mm 2 mps 716 mmHg 74%
    20:00 +21°C° 0 mm 2 mps 716 mmHg 81%
    21:00 +20°C° 0 mm 2 mps 716 mmHg 84%
    22:00 +20°C° 0 mm 2 mps 716 mmHg 87%
    23:00 +19°C° 0 mm 2 mps 716 mmHg 89%

    23 December, Saturday

    Time Temperature Precipitation Wind Pressure Humidity
    00:00 +19°C° 0 mm 2 mps 716 mmHg 91%
    01:00 +20°C° 0 mm 1 mps 715 mmHg 92%
    02:00 +19°C° 0 mm 1 mps 715 mmHg 93%
    03:00 +19°C° 0 mm 1 mps 715 mmHg 94%
    04:00 +18°C° 0 mm 2 mps 715 mmHg 94%
    05:00 +18°C° 0 mm 2 mps 715 mmHg 94%
    06:00 +18°C° 0 mm 2 mps 715 mmHg 92%
    07:00 +19°C° 0 mm 2 mps 716 mmHg 90%
    08:00 +20°C° 0 mm 3 mps 716 mmHg 88%
    09:00 +22°C° 0 mm 3 mps 716 mmHg 78%
    10:00 +25°C° 0 mm 4 mps 716 mmHg 67%
    11:00 +26°C° 0 mm 4 mps 716 mmHg 56%
    12:00 +27°C° 0 mm 4 mps 715 mmHg 53%
    13:00 +28°C° 0 mm 4 mps 715 mmHg 49%
    14:00 +29°C° 0 mm 4 mps 714 mmHg 45%
    15:00 +28°C° 0 mm 4 mps 714 mmHg 51%
    16:00 +27°C° 0 mm 4 mps 714 mmHg 57%
    17:00 +26°C° 0 mm 4 mps 714 mmHg 64%
    18:00 +25°C° 0 mm 4 mps 714 mmHg 71%
    19:00 +24°C° 0 mm 3 mps 714 mmHg 78%
    20:00 +22°C° 0 mm 3 mps 715 mmHg 85%
    21:00 +22°C° 0 mm 3 mps 715 mmHg 88%
    22:00 +21°C° 0 mm 2 mps 715 mmHg 90%
    23:00 +21°C° 0 mm 2 mps 715 mmHg 93%
    Show more